Canadian, TX

3:36 AM CDT on July 28, 2017 (GMT -0500)
Hemphill County

Weather History for KHHF - February, 2013

Change the Weather History Date:

Tuesday, February 26, 2013

  Actual Average (KPPA) Record (KPPA)
Temperature  
Mean Temperature 28 °F -  
Max Temperature 35 °F 57 °F 81 °F (1981)
Min Temperature 21 °F 29 °F 8 °F (2014)
Degree Days  
Heating Degree Days 37    
Moisture  
Dew Point 24 °F    
Average Humidity 78    
Maximum Humidity 93    
Minimum Humidity 60    
Precipitation  
Precipitation 0.00 in - - ()
Sea Level Pressure  
Sea Level Pressure 29.85 in    
Wind  
Wind Speed 9 mph (NNW)    
Max Wind Speed 18 mph    
Max Gust Speed 22 mph    
Visibility 10 miles    
Events      
Averages and records for this station are not official NWS values.
T = Trace of Precipitation, MM = Missing Value Source: NWS Daily Summary

Daily Weather History Graph

Daily Weather History Graph

Search for Another Location

Airport or City:

Trip Planner

Search our weather history database for the weather conditions in past years. The results will help you decide how hot, cold, wet, or windy it might be!

Date:

Astronomy

Feb. 26, 2013 Rise Set
Actual Time 7:15 AM CST 6:34 PM CST
Civil Twilight 6:49 AM CST 6:59 PM CST
Nautical Twilight 6:19 AM CST 7:29 PM CST
Astronomical Twilight 5:50 AM CST 7:59 PM CST
Moon 7:48 PM CST (2/26) 7:22 AM CST (2/26)
Length of Visible Light 12h 10m
Length of Day
11h 18m
Full, 99% of the Moon is Illuminated
Feb 26
Full
Mar 4
Last Quarter
Mar 11
New
Mar 19
First Quarter
Mar 27
Full

Hourly Weather History & Observations

Time (CST) Temp. Windchill Dew Point Humidity Pressure Visibility Wind Dir Wind Speed Gust Speed Precip Events Conditions
12:15 AM 32.0 °F 21.6 °F 26.6 °F 80% 29.85 in - NNW 15.0 mph 20.7 mph N/A   Overcast
12:35 AM 32.0 °F 20.5 °F 26.6 °F 80% 29.84 in - NNW 18.4 mph 21.9 mph N/A   Mostly Cloudy
12:55 AM 30.2 °F 18.1 °F 24.8 °F 80% 29.84 in - North 18.4 mph - N/A   Unknown
1:15 AM 30.2 °F 20.2 °F 24.8 °F 80% 29.84 in - NNW 12.7 mph 20.7 mph N/A   Mostly Cloudy
1:35 AM 28.4 °F 17.0 °F 23.0 °F 80% 29.84 in - North 15.0 mph - N/A   Overcast
1:55 AM 28.4 °F 18.0 °F 23.0 °F 80% 29.84 in - North 12.7 mph 19.6 mph N/A   Mostly Cloudy
2:15 AM 28.4 °F 19.1 °F 23.0 °F 80% 29.84 in - North 10.4 mph - N/A   Mostly Cloudy
2:35 AM 28.4 °F 19.7 °F 23.0 °F 80% 29.84 in - NNW 9.2 mph - N/A   Overcast
2:55 AM 28.4 °F 19.1 °F 23.0 °F 80% 29.85 in - NW 10.4 mph - N/A   Overcast
3:15 AM 28.4 °F 19.1 °F 23.0 °F 80% 29.85 in - NW 10.4 mph - N/A   Scattered Clouds
3:35 AM 28.4 °F 17.5 °F 23.0 °F 80% 29.84 in - NW 13.8 mph - N/A   Unknown
3:55 AM 28.4 °F 18.5 °F 23.0 °F 80% 29.83 in - NW 11.5 mph - N/A   Clear
4:15 AM 26.6 °F 16.8 °F 23.0 °F 86% 29.82 in - NNW 10.4 mph - N/A   Unknown
4:35 AM 26.6 °F 18.2 °F 21.2 °F 80% 29.82 in - NW 8.1 mph - N/A   Unknown
4:55 AM 26.6 °F 15.7 °F 21.2 °F 80% 29.82 in - NW 12.7 mph - N/A   Unknown
5:15 AM 26.6 °F 17.5 °F 21.2 °F 80% 29.82 in - NW 9.2 mph - N/A   Clear
5:35 AM 26.6 °F 17.5 °F 21.2 °F 80% 29.82 in - NNW 9.2 mph - N/A   Clear
5:55 AM 26.6 °F 19.1 °F 21.2 °F 80% 29.84 in - NW 6.9 mph - N/A   Clear
6:15 AM 24.8 °F 19.1 °F 21.2 °F 86% 29.84 in - NE 4.6 mph - N/A   Unknown
6:35 AM 23.0 °F 13.1 °F 19.4 °F 86% 29.84 in - NNW 9.2 mph - N/A   Unknown
6:55 AM 23.0 °F 18.4 °F 19.4 °F 86% 29.82 in - NNE 3.5 mph - N/A   Unknown
7:15 AM 21.2 °F - 19.4 °F 93% 29.84 in - Calm Calm - N/A   Unknown
7:35 AM 23.0 °F - 19.4 °F 86% 29.84 in - Calm Calm - N/A   Unknown
7:55 AM 24.8 °F 20.5 °F 21.2 °F 86% 29.84 in - NW 3.5 mph - N/A   Unknown
8:15 AM 23.0 °F 14.7 °F 19.4 °F 86% 29.86 in - NW 6.9 mph - N/A   Unknown
8:35 AM 26.6 °F 19.1 °F 21.2 °F 80% 29.87 in - WNW 6.9 mph - N/A   Clear
8:55 AM 26.6 °F 18.2 °F 21.2 °F 80% 29.89 in - WNW 8.1 mph - N/A   Clear
9:15 AM 26.6 °F 22.6 °F 21.2 °F 80% 29.87 in - NW 3.5 mph - N/A   Clear
9:35 AM 26.6 °F 20.0 °F 21.2 °F 80% 29.86 in - WNW 5.8 mph - N/A   Clear
9:55 AM 28.4 °F 21.2 °F 21.2 °F 74% 29.87 in - WNW 6.9 mph - N/A   Clear
10:15 AM 28.4 °F 23.3 °F 23.0 °F 80% 29.87 in - West 4.6 mph - N/A   Clear
10:35 AM 30.2 °F 26.7 °F 23.0 °F 75% 29.86 in 10.0 mi North 3.5 mph - N/A   Clear
10:55 AM 30.2 °F 21.9 °F 23.0 °F 75% 29.86 in 10.0 mi NW 9.2 mph - N/A   Clear
11:15 AM 30.2 °F 22.6 °F 23.0 °F 75% 29.87 in 10.0 mi NW 8.1 mph - N/A   Clear
11:35 AM 32.0 °F 24.2 °F 24.8 °F 75% 29.87 in 10.0 mi NW 9.2 mph - N/A   Clear
11:55 AM 32.0 °F 23.6 °F 24.8 °F 75% 29.87 in 10.0 mi NW 10.4 mph - N/A   Clear
12:15 PM 32.0 °F 24.2 °F 26.6 °F 80% 29.87 in 10.0 mi NW 9.2 mph - N/A   Clear
12:35 PM 32.0 °F 24.2 °F 26.6 °F 80% 29.86 in 10.0 mi WNW 9.2 mph - N/A   Clear
12:55 PM 33.8 °F 28.6 °F 26.6 °F 75% 29.85 in 10.0 mi NNW 5.8 mph - N/A   Clear
1:15 PM 33.8 °F 27.7 °F 26.6 °F 75% 29.84 in 10.0 mi NNW 6.9 mph - N/A   Clear
1:35 PM 33.8 °F 27.7 °F 26.6 °F 75% 29.84 in 10.0 mi WNW 6.9 mph - N/A   Clear
2:15 PM 33.8 °F 28.6 °F 26.6 °F 75% 29.81 in 10.0 mi NNW 5.8 mph - N/A   Clear
2:35 PM 35.6 °F 30.7 °F 26.6 °F 70% 29.81 in 10.0 mi NW 5.8 mph - N/A   Clear
2:55 PM 35.6 °F - 26.6 °F 70% 29.80 in 10.0 mi Calm Calm - N/A   Clear
3:15 PM 35.6 °F - 24.8 °F 65% 29.80 in 10.0 mi Calm Calm - N/A   Clear
3:35 PM 35.6 °F - 24.8 °F 65% 29.81 in 10.0 mi Calm Calm - N/A   Clear
3:55 PM 35.6 °F 32.8 °F 26.6 °F 70% 29.82 in 10.0 mi WNW 3.5 mph - N/A   Clear
4:15 PM 35.6 °F 30.7 °F 24.8 °F 65% 29.83 in 10.0 mi NW 5.8 mph - N/A   Clear
4:55 PM 35.6 °F 32.8 °F 23.0 °F 60% 29.82 in 10.0 mi NNW 3.5 mph - N/A   Clear
5:15 PM 35.6 °F - 23.0 °F 60% 29.83 in 10.0 mi Calm Calm - N/A   Clear
5:35 PM 35.6 °F 31.7 °F 23.0 °F 60% 29.84 in 10.0 mi North 4.6 mph - N/A   Clear
5:55 PM 35.6 °F 31.7 °F 26.6 °F 70% 29.85 in 10.0 mi North 4.6 mph - N/A   Clear
6:15 PM 35.6 °F 32.8 °F 26.6 °F 70% 29.85 in 10.0 mi North 3.5 mph - N/A   Clear
6:35 PM 33.8 °F 28.6 °F 24.8 °F 70% 29.85 in 10.0 mi NNE 5.8 mph - N/A   Clear
6:55 PM 32.0 °F 26.4 °F 26.6 °F 80% 29.85 in 10.0 mi NE 5.8 mph - N/A   Clear
7:15 PM 32.0 °F 28.7 °F 26.6 °F 80% 29.85 in 10.0 mi NE 3.5 mph - N/A   Clear
7:35 PM 32.0 °F 26.4 °F 26.6 °F 80% 29.85 in 10.0 mi North 5.8 mph - N/A   Clear
7:55 PM 32.0 °F 27.5 °F 24.8 °F 75% 29.85 in 10.0 mi North 4.6 mph - N/A   Scattered Clouds
8:15 PM 30.2 °F - 23.0 °F 75% 29.88 in 10.0 mi Calm Calm - N/A   Clear
8:35 PM 28.4 °F 24.6 °F 24.8 °F 86% 29.90 in 10.0 mi SW 3.5 mph - N/A   Clear
8:55 PM 30.2 °F - 24.8 °F 80% 29.90 in 10.0 mi Calm Calm - N/A   Scattered Clouds
9:15 PM 28.4 °F 24.6 °F 24.8 °F 86% 29.88 in 10.0 mi ESE 3.5 mph - N/A   Scattered Clouds
9:35 PM 28.4 °F - 24.8 °F 86% 29.91 in 10.0 mi Calm Calm - N/A   Mostly Cloudy
9:55 PM 28.4 °F 23.3 °F 24.8 °F 86% 29.92 in 10.0 mi NW 4.6 mph - N/A   Mostly Cloudy
10:15 PM 30.2 °F - 26.6 °F 86% 29.92 in 10.0 mi Calm Calm - N/A   Mostly Cloudy
10:35 PM 30.2 °F 24.3 °F 26.6 °F 86% 29.90 in 10.0 mi SSE 5.8 mph - N/A   Overcast
11:15 PM 30.2 °F 24.3 °F 26.6 °F 86% 29.95 in 10.0 mi North 5.8 mph - N/A   Overcast
11:35 PM 30.2 °F - 26.6 °F 86% 29.96 in 10.0 mi Calm Calm - N/A   Overcast
11:55 PM 30.2 °F - 26.6 °F 86% 29.96 in 10.0 mi Calm Calm - N/A   Overcast